Погода в Лиеги

Латвия     56°34′44″N   21°20′03″E
темп.,
°C
ветер,
м/с
пор.,
м/с
влажн.,
%
обл.,
%
осадки,
мм/ч
давл.,
гПа
погр.,
м
31 июля, сб
сб3100:00+17зюз9158713 2.3 1000927
03:00+17з613895 3.4 1001706
06:00+17з6118496 0.4 1001624
09:00+20з61067100 0.4 10021248
12:00+21зюз696240 0.2 10041420
15:00+23юз685313 0.2 10041299
18:00+23юз59535 0.0 10021089
21:00+18юз498352 0.8 1002336
1 августа, вс
вс100:00+16юз4108717 0.5 1003354
03:00+15ю410915 1.2 1002302
06:00+17юз81489100 1.2 1000935
09:00+18зюз7118393 3.8 10021111
12:00+21зюз7105786 0.4 10041470
15:00+20зюз6961100 0.4 10051431
18:00+20зюз6963100 0.1 10061270
21:00+19зюз4766100 0.1 1006979
2 августа, пн
пн200:00+15ююз2485100 0.1 100686
03:00+15ю2493100 0.6 100591
06:00+14юз229195 0.2 100431
09:00+19зюз467530 0.4 10041023
12:00+19з576631 1.3 10041201
15:00+21зюз78475 1.4 10041865
18:00+20зюз68549 0.0 10051727
21:00+17зюз5107110 0.3 1004567
3 августа, вт
вт300:00+14зюз369114 0.4 1004120
03:00+13с119233 1.0 100521
06:00+13сз119129 0.0 100617
09:00+17ссз467819 0.6 1008882
12:00+20ссз55410 0.1 10101840
15:00+21сз55371 0.1 10111929
18:00+20сз44405 0.0 10111511
21:00+16сз22635 0.0 101219
4 августа, ср
ср400:00+13вюв1172100 0.0 101311
03:00+14вюв2565100 0.0 1013120
06:00+11вюв357676 0.0 101385
09:00+17юв466039 0.0 1013416
12:00+20ююв344884 0.0 10121104
15:00+22ю344899 0.0 10121436
18:00+17юз237997 0.8 1011124
21:00+15св4892100 1.3 1011236